www.pogodaiklimat.ru

Погода и климат >> Архив погоды >> Россия >> Ненецкий АО >> Индига


АРХИВ ПОГОДЫ в Индиге

Время (UTC), дата Ветер
(напр.,м/с)
 
Видим.   Явления Облачность Т
(С)
Тd
(С)
f
(%)
Тe
(С)
Тes
(С)
Комфортность P
(гПа)
Po
(гПа)
Тmin
(С)
Tmax
(С)
R
(мм)
R24
(мм)
S
(см)
06 9.01 ЮЗ 4 10 км 8/8 600 м
[Sc]
-19.3 -21.2 85 -28 -28 1013.7 1013.2
09 9.01 ЮЗ 4 20 км 6/3 600 м
[Sc Ac trans]
-17.1 -19.0 85 -25 -25 1015.2 1014.7
12 9.01 З 6
{10}
10 км 8/8 600 м
[Sc]
-16.1 -18.7 80 -26 -26 1015.9 1015.4
15 9.01 З 9-11
{11}
20 км позёмок 8/8 600 м
[Sc Ac trans]
-15.1 -17.8 80 -27 -27 1016.1 1015.6 -14.9
18 9.01 ЮЗ 8-10
{12}
20 км позёмок 8/5 600 м
[Sc Ac trans]
-15.3 -20.4 65 -26 -26 1016.2 1015.7
21 9.01 ЮЗ 8-10
{11}
20 км позёмок 3/3 600 м
[Sc]
-15.5 -19.7 70 -27 -27 1016.6 1016.1
00 10.01 ЮЗ 9-11
{11}
20 км позёмок 1/0
[Ci fib]
-15.3 -19.5 70 -27 -27 1016.1 1015.6
03 10.01 ЮЗ 8-10
{12}
20 км позёмок 4/0
[Cs]
-16.6 -20.0 75 -28 -28 1015.9 1015.4 -16.9 19
06 10.01 ЮЗ 7
{10}
20 км позёмок 6/5 600 м
[Sc Ac trans]
-17.3 -19.9 80 -28 -28 1015.5 1015.0 -17.3
09 10.01 ЮЗ 4
{10}
20 км {метель} 3/3 600 м
[Sc]
-18.2 -20.8 80 -27 -27 1015.0 1014.5
12 10.01 Ю 2
{11}
20 км {метель} 3/0
[Cs]
-16.1 -18.0 85 -21 -21 1014.1 1013.6
15 10.01 Ю 4 10 км 6/0
[Cs]
-18.3 -20.9 80 -27 -27 1011.8 1011.3 -15.6
18 10.01 ЮЗ 12-14
{15}
10 км сильный позёмок 10/10 600 м
[Sc]
-16.3 -17.6 90 -30 -30 1007.5 1007.0
21 10.01 Ю 11-15
{16}
10 км сильный позёмок 10/10 600 м
[Sc]
-12.2 -13.5 90 -24 -24 1003.8 1003.3
00 11.01 Ю 14-17
{17}
10 км сильный позёмок 10/10 600 м
[Sc]
-12.2 -13.5 90 -25 -25 999.0 998.5
03 11.01 Ю 9-13
{17}
10 км позёмок 10/10 600 м
[Sc]
-11.1 -12.4 90 -22 -22 994.4 993.9 -18.4 20
06 11.01 Ю 18-23
{24}
200 м сильная метель ?/? -10.8 -12.1 90 -24 -24 989.3 988.8
09 11.01 Ю 17-20
{23}
<100 м сильная метель ?/? -9.8 -10.6 94 -23 -23 987.1 986.6
12 11.01 Ю 16-22
{22}
<100 м сильная метель ?/? -9.2 -10.1 93 -22 -22 984.7 984.2
15 11.01 Ю 14-17
{22}
<100 м сильная метель ?/? -8.8 -9.5 95 -21 -21 983.0 982.5 -8.8 3
18 11.01 Ю 13-15
{17}
200 м сильная метель ?/? -8.1 -8.9 94 -20 -20 981.3 980.8
21 11.01 Ю 10-12
{15}
500 м слаб. снег {метель} 10/10 300 м
[Frnb Ns]
-7.5 -8.4 93 -18 -18 980.7 980.2
00 12.01 Ю 8-10
{12}
4000 м слаб. снег {метель} 10/10 300 м
[Frnb Ns]
-6.8 -7.7 93 -16 -16 979.9 979.4
03 12.01 ЮЗ 14-17
{21}
500 м слаб. снег {метель} 10/10 300 м
[Frnb Ns]
-7.2 -8.1 93 -19 -19 978.8 978.3 -8.8 2 22
06 12.01 Ю 11-14
{18}
10 км позёмок {снег} 9/6 600 м
[Sc Ac As]
-7.6 -8.8 91 -18 -18 979.6 979.1
09 12.01 ЮЗ 11-14
{15}
10 км позёмок 9/8 600 м
[Sc Ac trans]
-7.7 -9.1 90 -18 -18 979.8 979.3
12 12.01 Ю 6
{16}
10 км {метель} 9/9 600 м
[Sc]
-7.8 -9.4 88 -16 -16 980.4 979.9
15 12.01 Ю 6 10 км 10/10 600 м
[Sc]
-8.0 -10.1 85 -16 -16 980.7 980.2 -7.2 0.4
18 12.01 Ю 8-10
{10}
4000 м слаб. снег 10/10 600 м
[Sc]
-8.7 -10.4 87 -18 -18 979.9 979.4
21 12.01 Ю 8-10
{11}
10 км позёмок {снег} 10/10 600 м
[Sc]
-9.9 -11.6 87 -20 -20 979.0 978.5
00 13.01 Ю 5
{10}
4000 м слаб. снег {метель} 10/10 600 м
[Sc]
-8.3 -9.4 92 -16 -16 978.5 978.0
03 13.01 Ю 6 10 км {снег} 10/10 600 м
[Sc]
-7.7 -9.6 86 -16 -16 978.0 977.5 -9.9 0.7 21
06 13.01 ЮВ 6
{10}
2000 м слаб. снег 10/10 300 м
[Frnb Ns]
-8.4 -9.4 92 -17 -17 977.9 977.4
09 13.01 Ю 6 4000 м слаб. снег 10/10 300 м
[Frnb Ns]
-8.3 -9.7 90 -17 -17 977.5 977.0
12 13.01 Ю 7-10
{11}
2000 м слаб. ливневой снег 9/9 300 м
[Cb cap]
-7.9 -9.3 90 -17 -17 977.2 976.7
15 13.01 Ю 5
{10}
10 км {ливн. осадки} 9/9 300 м
[Cb cap]
-7.9 -9.4 89 -16 -16 977.5 977.0 -7.6 0.6
18 13.01 Ю 4 10 км {ливн. осадки} 4/3 300 м
[Cb cap Ac trans]
-9.9 -11.1 91 -17 -17 977.7 977.2
21 13.01 ЮВ 5 10 км {ливн. осадки} 4/4 300 м
[Cb cap]
-10.7 -12.0 90 -19 -19 978.3 977.8
00 14.01 Ю 3 2000 м слаб. ливневой снег 10/10 300 м
[Cb cap]
-9.7 -10.9 91 -16 -16 978.9 978.4
06 14.01 ЮЗ 7 2000 м слаб. ливневой снег 10/10 300 м
[Cb cap]
-6.6 -7.4 94 -15 -15 980.7 980.2 -11.1
09 14.01 ЮЗ 9-10
{12}
10 км позёмок {ливн. осадки} 9/9 300 м
[Cb cap]
-4.8 -5.4 96 -14 -14 982.6 982.1
12 14.01 ЮЗ 12-15
{15}
500 м слаб. ливневой снег {метель} 9/9 300 м
[Cb cap]
-6.2 -6.7 96 -17 -17 984.4 983.9
15 14.01 ЮЗ 12-14
{16}
500 м слаб. ливневой снег {метель} 10/10 300 м
[Cb cap]
-6.2 -6.6 97 -17 -17 986.7 986.2 -4.6 1
18 14.01 ЮЗ 10-13
{14}
500 м слаб. ливневой снег {метель} 9/9 300 м
[Cb cap]
-6.9 -7.4 96 -17 -17 988.8 988.3
21 14.01 ЮЗ 9-11
{14}
10 км позёмок {ливн. осадки} 3/3 300 м
[Cb cap]
-8.2 -9.0 94 -18 -18 990.4 989.9
00 15.01 ЮЗ 10-12
{12}
10 км позёмок {ливн. осадки} 10/10 300 м
[St]
-7.7 -8.4 95 -18 -18 992.0 991.5
03 15.01 ЮЗ 6
{12}
10 км позёмок 10/10 300 м
[St]
-7.6 -8.3 95 -16 -16 993.0 992.5 -8.2 0.6 23
06 15.01 З 3 10 км {метель} 10/10 300 м
[St]
-7.6 -8.3 95 -13 -13 993.7 993.2 -8.4
09 15.01 Ю 3 10 км 10/10 600 м
[Sc]
-7.6 -8.7 92 -13 -13 994.3 993.8
12 15.01 Ю 3 10 км 10/10 600 м
[Sc]
-7.6 -8.7 92 -13 -13 994.3 993.8
15 15.01 Ю 1 10 км 10/10 600 м
[Sc]
-7.4 -8.7 90 -10 -10 994.8 994.3
18 15.01 В 2 10 км 9/9 600 м
[Sc]
-8.6 -9.9 90 -13 -13 995.3 994.8 -7.3
21 15.01 ЮВ 3 10 км 9/9 600 м
[Sc]
-9.3 -10.3 92 -15 -15 996.3 995.8
00 16.01 ЮВ 3 10 км 9/9 600 м
[Sc]
-9.6 -10.6 92 -16 -16 997.0 996.5

 

Местоположение метеостанции Индига (Ненецкий АО, Россия): широта 67.68 долгота 48.68 высота над уровнем моря 4 м.

В архиве по умолчанию представлена погода в Индиге за последнюю неделю. Архивные данные за месяц целиком и за предыдущие месяцы, начиная с января 2011 года, Вы можете получить, выбрав интересующий диапазон дат из раскрывающегося списка и нажав кнопку "Ввод!".


*Определитесь, кто Вы:
робот инопланетянин человек

Внимание! Время в таблицах - всемирное. Для получения местного времени необходимо прибавить поправку, которая равна 3 ч.

Смотрите также архив погоды в соседних городах и на ближайших метеорологических станциях:

Погода на Мысе Микулкин (Ненецкий АО, Россия) (86 км)
Погода в Нижней Пеше (Ненецкий АО, Россия) (111 км)
Погода в Коткино (Ненецкий АО, Россия) (127 км)
Погода в Бугрино (Ненецкий АО, Россия) (127 км)
Погода в Сенгейском Шаре (Ненецкий АО, Россия) (139 км)
Погода в Нарьян-Маре (Ненецкий АО, Россия) (184 км)
Погода в Шойне (Ненецкий АО, Россия) (191 км)
Погода на Колгуевом Острове (Ненецкий АО, Россия) (206 км)
Погода в Неси (Ненецкий АО, Россия) (210 км)
Погода в Окуневом Носу (Коми, Россия) (233 км)

Пояснения к столбцам:

Ветер - указаны скорость ветра в м/с - средняя за 10 мин, порывы в срок и между сроками (в фигурных скобках) и направление, откуда дует ветер: С - северный, СВ - северо-восточный, В - восточный, ЮВ - юго-восточный, Ю - южный, ЮЗ - юго-западный, З - западный, СЗ - северо-западный.
Видимость - горизонтальная дальность видимости в метрах или километрах. При видимости от 1 до 10 км при отсутствии осадков обычно наблюдается дымка, при ухудшении видимости до 1 км и менее - туман. В сухую погоду видимость может ухудшаться дымом, пылью или мглою.
Явления - указаны атмосферные явления, наблюдавшиеся в срок или в последний час перед сроком; фигурными скобками обозначены явления, наблюдавшиеся между сроками (за 1-3 часа до срока); квадратными скобками обозначены град или гололедные отложения с указанием их диаметра в мм.
Облачность - указаны через наклонную черту общая и нижняя облачность в баллах и высота нижней границы облаков в метрах; квадратными скобками обозначены формы облаков: Ci - перистые, Cs - перисто-слоистые, Cc - перисто-кучевые, Ac - высококучевые, As - высокослоистые, Sc - слоисто-кучевые, Ns - слоисто-дождевые, Cu - кучевые, Cb - кучево-дождевые. Подробнее классификацию облаков см. в Атласе облаков (PDF).
T - Температура воздуха - температура, измеренная на высоте 2 м над землей.
Td - Температура точки росы - температура, при понижении до которой содержащийся в воздухе водяной пар достигнет насыщения.
f - Относительная влажность воздуха - влажноcть воздуха, измеренная на высоте 2 м над землей.
Te - Эффективная температура - температура, которую ощущает одетый по сезону человек в тени. Характеристика душности погоды. При расчете учитывается влияние влажности воздуха и скорости ветра на теплоощущения человека.
Tes - Эффективная температура на солнце - температура, которую ощущает человек, с поправкой на солнечный нагрев. Характеристика знойности погоды. Зависит от высоты солнца над горизонтом, облачности и скорости ветра. Ночью, в пасмурную погоду, а также при ветре 12 м/с и более поправка равна нулю.
P - Атмосферное давление - приведенное к уровню моря атмосферное давление.
Po - Атмосферное давление - измеренное на уровне метеостанции атмосферное давление.
Tmin - Минимальная температура - минимум температуры воздуха на высоте 2 м над землей.
Tmax - Максимальная температура - максимум температуры воздуха на высоте 2 м над землей.
R - Количество осадков - Количество выпавших осадков за период времени, мм. При наведении курсора мыши на число - период времени, за который выпало указанное количество осадков.
R24 - Количество осадков - Количество выпавших осадков за 24 часа, мм.
S - Снежный покров - Высота снежного покрова, см. При наведении курсора мыши на число - состояние снежного покрова и степень покрытия местности в баллах.